Ogden, UT

4:33 PM MST on December 10, 2016 (GMT -0700)
Ogden-Hinckley

Weather History for KOGD - July, 2013

Change the Weather History Date:

Tuesday, July 9, 2013

  Actual Average Record
Temperature  
Mean Temperature 80 °F -  
Max Temperature 95 °F 91 °F 102 °F (1989)
Min Temperature 68 °F 60 °F 48 °F (1959)
Cooling Degree Days 16    
Growing Degree Days 30 (Base 50)    
Moisture  
Dew Point 42 °F    
Average Humidity 27    
Maximum Humidity 45    
Minimum Humidity 12    
Precipitation  
Precipitation 0.00 in - - ()
Sea Level Pressure  
Sea Level Pressure 29.91 in    
Wind  
Wind Speed 5 mph (South)    
Max Wind Speed 8 mph    
Max Gust Speed -    
Visibility 10 miles    
Events      
Averages and records for this station are not official NWS values.
T = Trace of Precipitation, MM = Missing Value Source: NWS Daily Summary

Daily Weather History Graph

Daily Weather History Graph

Search for Another Location

Airport or City:

Trip Planner

Search our weather history database for the weather conditions in past years. The results will help you decide how hot, cold, wet, or windy it might be!

Date:

Astronomy

Jul. 09, 2013 Rise Set
Actual Time 6:04 AM MDT 9:02 PM MDT
Civil Twilight 5:30 AM MDT 9:35 PM MDT
Nautical Twilight 4:48 AM MDT 10:17 PM MDT
Astronomical Twilight 3:59 AM MDT 11:06 PM MDT
Moon 7:33 AM MDT (7/9) 9:40 PM MDT (7/9)
Length of Visible Light 16h 04m
Length of Day
14h 58m
New Moon, 2% of the Moon is Illuminated
Jul 9
New Moon
Jul 15
First Quarter
Jul 22
Full
Jul 29
Last Quarter
Aug 6
New

Hourly Weather History & Observations

Time (MDT) Temp. Dew Point Humidity Pressure Visibility Wind Dir Wind Speed Gust Speed Precip Events Conditions
12:53 AM 73.0 °F 46.0 °F 38% 29.87 in 10.0 mi South 6.9 mph - N/A   Clear
1:53 AM 75.0 °F 45.0 °F 34% 29.86 in 10.0 mi South 6.9 mph - N/A   Clear
2:53 AM 73.0 °F 45.0 °F 37% 29.86 in 10.0 mi South 6.9 mph - N/A   Clear
3:53 AM 72.0 °F 45.0 °F 38% 29.88 in 10.0 mi North 4.6 mph - N/A   Clear
4:53 AM 72.0 °F 44.1 °F 37% 29.89 in 10.0 mi South 8.1 mph - N/A   Clear
5:53 AM 68.0 °F 45.0 °F 43% 29.91 in 10.0 mi SSW 6.9 mph - N/A   Clear
6:53 AM 68.0 °F 46.0 °F 45% 29.93 in 10.0 mi South 5.8 mph - N/A   Clear
7:53 AM 72.0 °F 46.9 °F 41% 29.94 in 10.0 mi SSE 5.8 mph - N/A   Clear
8:53 AM 73.9 °F 46.9 °F 38% 29.97 in 10.0 mi Calm Calm - N/A   Clear
9:53 AM 78.1 °F 48.9 °F 36% 29.97 in 10.0 mi Calm Calm - N/A   Clear
10:53 AM 84.9 °F 51.1 °F 31% 29.97 in 10.0 mi Calm Calm - N/A   Clear
11:53 AM 89.1 °F 39.9 °F 18% 29.96 in 10.0 mi SE 6.9 mph - N/A   Clear
12:53 PM 91.0 °F 37.9 °F 15% 29.96 in 10.0 mi SSW 8.1 mph - N/A   Clear
1:53 PM 93.0 °F 37.9 °F 15% 29.94 in 10.0 mi Variable 6.9 mph - N/A   Clear
2:53 PM 91.9 °F 39.9 °F 16% 29.94 in 10.0 mi Calm Calm - N/A   Clear
3:53 PM 93.0 °F 36.0 °F 13% 29.93 in 10.0 mi Calm Calm - N/A   Clear
4:53 PM 93.0 °F 37.0 °F 14% 29.91 in 10.0 mi South 5.8 mph - N/A   Clear
5:53 PM 93.9 °F 34.0 °F 12% 29.90 in 10.0 mi WNW 6.9 mph - N/A   Clear
6:53 PM 93.9 °F 33.1 °F 12% 29.88 in 10.0 mi North 3.5 mph - N/A   Clear
7:53 PM 91.9 °F 32.0 °F 12% 29.87 in 10.0 mi Calm Calm - N/A   Clear
8:53 PM 87.1 °F 37.0 °F 17% 29.87 in 10.0 mi Calm Calm - N/A   Clear
9:53 PM 81.0 °F 45.0 °F 28% 29.88 in 10.0 mi South 5.8 mph - N/A   Clear
10:53 PM 77.0 °F 42.1 °F 29% 29.89 in 10.0 mi South 6.9 mph - N/A   Clear
11:53 PM 77.0 °F 39.9 °F 26% 29.89 in 10.0 mi South 8.1 mph - N/A   Clear